Hallock, MN

3:50 PM CST on December 15, 2017 (GMT -0600)
Hallock Municipal

Weather History for KHCO - July, 2013

Change the Weather History Date:

Friday, July 19, 2013

  Actual Average Record
Temperature  
Mean Temperature 68 °F -  
Max Temperature 78 °F 80 °F 98 °F (1974)
Min Temperature 59 °F 57 °F 40 °F (1951)
Cooling Degree Days 4    
Growing Degree Days 18 (Base 50)    
Moisture  
Dew Point 59 °F    
Average Humidity 73    
Maximum Humidity 100    
Minimum Humidity 50    
Precipitation  
Precipitation 0.00 in - - ()
Sea Level Pressure  
Sea Level Pressure 29.83 in    
Wind  
Wind Speed 10 mph (NW)    
Max Wind Speed 17 mph    
Max Gust Speed 24 mph    
Visibility 10 miles    
Events      
Averages and records for this station are not official NWS values.
T = Trace of Precipitation, MM = Missing Value Source: NWS Daily Summary

Daily Weather History Graph

Daily Weather History Graph

Search for Another Location

Airport or City:

Trip Planner

Search our weather history database for the weather conditions in past years. The results will help you decide how hot, cold, wet, or windy it might be!

Date:

Astronomy

Jul. 19, 2013 Rise Set
Actual Time 5:45 AM CDT 9:21 PM CDT
Civil Twilight 5:06 AM CDT 10:01 PM CDT
Nautical Twilight 4:12 AM CDT 10:54 PM CDT
Astronomical Twilight 2:57 AM CDT 12:07 AM CDT
Moon 6:24 PM CDT (7/19) 2:29 AM CDT (7/19)
Length of Visible Light 16h 55m
Length of Day
15h 36m
Waxing Gibbous, 87% of the Moon is Illuminated
Jul 19
Waxing Gibbous
Jul 22
Full
Jul 29
Last Quarter
Aug 6
New
Aug 14
First Quarter

Hourly Weather History & Observations

Time (CDT) Temp. Dew Point Humidity Pressure Visibility Wind Dir Wind Speed Gust Speed Precip Events Conditions
12:01 AM 66.2 °F 64.4 °F 94% 29.68 in 10.0 mi WNW 10.4 mph - N/A   Clear
3:07 AM 64.4 °F 64.4 °F 100% 29.76 in 10.0 mi NW 13.8 mph 17.3 mph N/A   Overcast
3:13 AM 64.4 °F 64.4 °F 100% 29.76 in 10.0 mi NW 15.0 mph 19.6 mph N/A   Overcast
3:33 AM 64.4 °F 62.6 °F 94% 29.77 in 10.0 mi NW 8.1 mph - N/A   Scattered Clouds
3:53 AM 62.6 °F 62.6 °F 100% 29.77 in 10.0 mi NW 8.1 mph - N/A   Clear
4:14 AM 62.6 °F 60.8 °F 94% 29.77 in 10.0 mi NW 8.1 mph - N/A   Clear
4:33 AM 62.6 °F 60.8 °F 94% 29.78 in 10.0 mi NW 5.8 mph - N/A   Clear
4:53 AM 60.8 °F 60.8 °F 100% 29.78 in 10.0 mi NW 4.6 mph - N/A   Clear
5:14 AM 60.8 °F 59.0 °F 94% 29.79 in 10.0 mi NW 3.5 mph - N/A   Clear
5:33 AM 60.8 °F 59.0 °F 94% 29.79 in 10.0 mi WNW 4.6 mph - N/A   Clear
5:53 AM 60.8 °F 59.0 °F 94% 29.80 in 10.0 mi West 5.8 mph - N/A   Clear
6:14 AM 60.8 °F 59.0 °F 94% 29.80 in 10.0 mi WNW 3.5 mph - N/A   Clear
6:33 AM 60.8 °F 60.8 °F 100% 29.81 in 10.0 mi Calm Calm - N/A   Clear
6:53 AM 62.6 °F 60.8 °F 94% 29.81 in 10.0 mi WNW 5.8 mph - N/A   Clear
7:14 AM 62.6 °F 60.8 °F 94% 29.81 in 10.0 mi WNW 5.8 mph - N/A   Clear
7:33 AM 64.4 °F 62.6 °F 94% 29.82 in 10.0 mi WNW 6.9 mph - N/A   Clear
7:53 AM 64.4 °F 62.6 °F 94% 29.82 in 10.0 mi WNW 8.1 mph - N/A   Clear
8:14 AM 66.2 °F 62.6 °F 88% 29.82 in 10.0 mi WNW 6.9 mph - N/A   Clear
8:33 AM 66.2 °F 64.4 °F 94% 29.83 in 10.0 mi NW 8.1 mph - N/A   Clear
8:53 AM 66.2 °F 64.4 °F 94% 29.83 in 10.0 mi NW 8.1 mph - N/A   Clear
9:14 AM 68.0 °F 64.4 °F 88% 29.83 in 10.0 mi NW 6.9 mph - N/A   Clear
9:33 AM 69.8 °F 64.4 °F 83% 29.84 in 10.0 mi WNW 6.9 mph - N/A   Clear
9:53 AM 71.6 °F 66.2 °F 83% 29.84 in 10.0 mi West 5.8 mph - N/A   Clear
10:14 AM 71.6 °F 64.4 °F 78% 29.83 in 10.0 mi West 5.8 mph - N/A   Clear
10:33 AM 73.4 °F 64.4 °F 73% 29.83 in 10.0 mi West 6.9 mph - N/A   Clear
10:53 AM 73.4 °F 64.4 °F 73% 29.83 in 10.0 mi West 8.1 mph - N/A   Clear
11:12 AM 75.2 °F 66.2 °F 73% 29.82 in 10.0 mi West 10.4 mph - N/A   Clear
11:33 AM 75.2 °F 66.2 °F 73% 29.82 in 10.0 mi West 15.0 mph 18.4 mph N/A   Scattered Clouds
11:53 AM 77.0 °F 64.4 °F 65% 29.82 in 10.0 mi West 17.3 mph 20.7 mph N/A   Scattered Clouds
12:13 PM 77.0 °F 64.4 °F 65% 29.82 in 10.0 mi WNW 10.4 mph 20.7 mph N/A   Scattered Clouds
12:33 PM 77.0 °F 64.4 °F 65% 29.83 in 10.0 mi WNW 16.1 mph - N/A   Scattered Clouds
12:53 PM 77.0 °F 60.8 °F 57% 29.82 in 10.0 mi NW 15.0 mph 19.6 mph N/A   Clear
1:13 PM 78.8 °F 59.0 °F 51% 29.83 in 10.0 mi NW 12.7 mph 21.9 mph N/A   Clear
1:33 PM 78.8 °F 59.0 °F 51% 29.83 in 10.0 mi NW 16.1 mph 21.9 mph N/A   Clear
1:53 PM 77.0 °F 57.2 °F 50% 29.83 in 10.0 mi NW 15.0 mph 24.2 mph N/A   Clear
2:13 PM 78.8 °F 60.8 °F 54% 29.84 in 10.0 mi NW 11.5 mph - N/A   Scattered Clouds
2:33 PM 77.0 °F 60.8 °F 57% 29.83 in 10.0 mi NW 11.5 mph - N/A   Scattered Clouds
2:53 PM 78.8 °F 60.8 °F 54% 29.83 in 10.0 mi WNW 12.7 mph - N/A   Scattered Clouds
3:13 PM 77.0 °F 60.8 °F 57% 29.82 in 10.0 mi NW 10.4 mph 19.6 mph N/A   Scattered Clouds
3:34 PM 78.8 °F 62.6 °F 57% 29.82 in 10.0 mi NW 12.7 mph - N/A   Scattered Clouds
3:53 PM 78.8 °F 62.6 °F 57% 29.82 in 10.0 mi NW 12.7 mph 17.3 mph N/A   Scattered Clouds
4:13 PM 75.2 °F 62.6 °F 65% 29.82 in 10.0 mi NNW 9.2 mph - N/A   Scattered Clouds
4:34 PM 75.2 °F 59.0 °F 57% 29.83 in 10.0 mi North 10.4 mph 18.4 mph N/A   Clear
4:53 PM 73.4 °F 60.8 °F 65% 29.83 in 10.0 mi NNW 8.1 mph - N/A   Scattered Clouds
5:13 PM 75.2 °F 57.2 °F 53% 29.84 in 10.0 mi North 12.7 mph 17.3 mph N/A   Scattered Clouds
5:34 PM 75.2 °F 55.4 °F 50% 29.83 in 10.0 mi North 12.7 mph - N/A   Clear
5:53 PM 75.2 °F 55.4 °F 50% 29.83 in 10.0 mi North 17.3 mph - N/A   Clear
6:13 PM 75.2 °F 55.4 °F 50% 29.83 in 10.0 mi North 15.0 mph 19.6 mph N/A   Clear
6:33 PM 73.4 °F 53.6 °F 50% 29.83 in 10.0 mi North 12.7 mph 18.4 mph N/A   Clear
6:53 PM 73.4 °F 55.4 °F 53% 29.83 in 10.0 mi North 10.4 mph - N/A   Clear
7:13 PM 71.6 °F 53.6 °F 53% 29.84 in 10.0 mi North 10.4 mph - N/A   Clear
7:33 PM 71.6 °F 55.4 °F 57% 29.85 in 10.0 mi NNW 9.2 mph - N/A   Clear
7:53 PM 69.8 °F 55.4 °F 60% 29.86 in 10.0 mi North 9.2 mph - N/A   Clear
8:13 PM 69.8 °F 51.8 °F 53% 29.86 in 10.0 mi North 15.0 mph - N/A   Clear
8:33 PM 66.2 °F 51.8 °F 60% 29.86 in 10.0 mi North 11.5 mph - N/A   Clear
8:53 PM 66.2 °F 50.0 °F 56% 29.87 in 10.0 mi North 11.5 mph - N/A   Clear
9:13 PM 64.4 °F 51.8 °F 64% 29.88 in 10.0 mi North 10.4 mph - N/A   Clear
9:33 PM 64.4 °F 53.6 °F 68% 29.89 in 10.0 mi NNE 10.4 mph - N/A   Clear
9:53 PM 62.6 °F 53.6 °F 72% 29.91 in 10.0 mi NNE 10.4 mph - N/A   Clear
10:13 PM 62.6 °F 53.6 °F 72% 29.92 in 10.0 mi NNE 10.4 mph 18.4 mph N/A   Scattered Clouds
10:33 PM 60.8 °F 53.6 °F 77% 29.93 in 10.0 mi NNE 10.4 mph - N/A   Scattered Clouds
10:53 PM 60.8 °F 53.6 °F 77% 29.94 in 10.0 mi NNE 8.1 mph - N/A   Mostly Cloudy
11:13 PM 60.8 °F 51.8 °F 72% 29.95 in 10.0 mi NNE 11.5 mph - N/A   Mostly Cloudy
11:33 PM 59.0 °F 51.8 °F 77% 29.96 in 10.0 mi North 5.8 mph - N/A   Mostly Cloudy
11:53 PM 59.0 °F 51.8 °F 77% 29.96 in 10.0 mi North 8.1 mph - N/A   Overcast